Location: Selby
(38.0566°N, 122.2439°W)
Time: 06:36:45
(UTC+00:00)

SL-16 R/B - Pass Details

Date: 22 May 2024
Orbit: 842 x 845 km, 71.0° (Epoch: 13 June)

Event Time Altitude Azimuth Distance (km) Brightness Sun altitude
Rises 12:06:57 0° 312° (NW) 3,408 5.2 -8.6°
Reaches altitude 10° 12:11:54 10° 274° (W) 2,465 4.2 -7.8°
Maximum altitude 12:12:51 10° 264° (W) 2,433 4.1 -7.6°
Drops below altitude 10° 12:13:49 10° 254° (WSW) 2,462 4.0 -7.4°
Enters shadow 12:15:03 - 242° (WSW) 2,585 4.0 -7.2°
